Terminal Aerodrome Forecast
Issued by NWS

Home | Current Version | Previous Version | Text Only | Print | Product List | Glossary On
Versions: 1 2 3 4 5 6 7 8 9 10 11 12 13 14 15 16 17 18 19 20 21 22 23 24 25 26 27 28 29 30 31 32 33 34 35 36 37 38 39 40 41 42 43 44
000
FTUS46 KPQR 210520
TAFONP
TAF
KONP 210520Z 2106/2206 18011KT P6SM VCSH SCT010 BKN020 OVC070
     FM211600 12006KT 6SM BR BKN015 OVC035
     FM211900 19010G20KT 4SM -RA BR SCT025 OVC045
     FM220300 18020G30KT 4SM -RA OVC015=

USA.gov is the U.S. government's official web portal to all federal, state and local government web resources and services.